Stations météo

réclame
Mon MeteoGroup
Kleine Brogel, Belgique (6479): Température de l'air & dewpoint: 03.12.2018 20:00:00 - 09.12.2018 20:00:00 (CET)Kleine Brogel, Belgique (6479): Vitesse du vent & gusts: 03.12.2018 20:00:00 - 09.12.2018 20:00:00 (CET)Kleine Brogel, Belgique (6479): Direction du vent: 03.12.2018 20:00:00 - 09.12.2018 20:00:00 (CET)Kleine Brogel, Belgique (6479): reduced air pressure: 03.12.2018 20:00:00 - 09.12.2018 20:00:00 (CET)Kleine Brogel, Belgique (6479): visibility: 03.12.2018 20:00:00 - 09.12.2018 20:00:00 (CET)
Date & Time tt [°C] td [°C] ff [km/h] ff [knt] fx [km/h] fx [knt] dd ppp [hPa] vv [km]
09.12.2018 20:00:00 6,8 4,7 15 8 32 18 W 1013,5 6
09.12.2018 19:00:00 6,9 4,8 14 8 - - W 1012,1 20
09.12.2018 18:00:00 7,1 5,4 18 10 32 18 W 1010,3 15
09.12.2018 17:00:00 7,2 4,5 18 10 36 19 W 1008,7 10
09.12.2018 16:00:00 8,1 5,6 14 8 - - W 1006,7 20
09.12.2018 15:00:00 8,5 5,8 14 8 29 16 W 1005,1 20
09.12.2018 14:00:00 8,5 6,7 13 7 43 23 WNW 1003,2 10
09.12.2018 13:00:00 8,6 7,2 18 10 - - WSW 1002,0 20
09.12.2018 12:00:00 7,4 6,1 18 10 36 19 WSW 1001,5 10
09.12.2018 11:00:00 7,5 5,5 26 14 47 25 W 1001,0 10
09.12.2018 10:00:00 7,9 6,3 25 14 - - WSW 1000,2 19
09.12.2018 09:00:00 8,5 5,0 29 16 50 27 WSW 999,6 20
09.12.2018 08:00:00 8,5 5,1 22 12 47 25 W 998,9 20
09.12.2018 07:00:00 8,1 5,7 25 14 - - W 998,5 20
09.12.2018 06:00:00 7,9 6,1 22 12 61 33 W 997,9 11
09.12.2018 05:00:00 8,6 5,7 32 18 47 25 WSW 997,2 20
09.12.2018 04:00:00 6,6 6,1 22 12 - - W 997,4 4,6
09.12.2018 03:00:00 9,0 5,5 35 19 54 29 WSW 997,1 10
09.12.2018 02:00:00 9,6 5,5 36 19 54 29 WSW 996,7 20
09.12.2018 01:00:00 9,6 6,6 29 16 - - WSW 996,4 18
09.12.2018 00:00:00 10,5 6,5 32 18 50 27 W 995,9 20
08.12.2018 23:00:00 10,8 7,3 32 18 65 35 WSW 996,1 20
08.12.2018 22:00:00 10,6 8,4 36 19 - - WSW 996,1 20
08.12.2018 21:00:00 9,8 8,6 37 20 58 31 SW 996,8 3,5
08.12.2018 20:00:00 9,3 8,3 32 18 58 31 SW 997,9 6
08.12.2018 19:00:00 8,9 7,8 32 18 - - SW 1000,2 20
08.12.2018 18:00:00 8,8 8,1 28 15 43 23 SW 1002,1 2,9
08.12.2018 17:00:00 10,3 5,6 29 16 54 29 WSW 1003,1 20
08.12.2018 16:00:00 10,6 4,5 29 16 - - WSW 1004,0 18
08.12.2018 15:00:00 10,5 4,2 29 16 50 27 WSW 1004,2 20
08.12.2018 14:00:00 10,3 4,1 29 16 54 29 WSW 1004,6 20
08.12.2018 13:00:00 10,0 4,3 29 16 - - WSW 1004,7 20
08.12.2018 12:00:00 9,1 4,9 29 16 54 29 SW 1005,0 20
08.12.2018 11:00:00 9,1 4,9 36 19 61 33 WSW 1004,8 20
08.12.2018 10:00:00 8,8 4,9 40 21 - - WSW 1004,6 19
08.12.2018 09:00:00 8,3 4,8 36 19 54 29 SW 1004,3 20
08.12.2018 08:00:00 7,4 4,9 25 14 50 27 SW 1005,0 20
08.12.2018 07:00:00 7,3 4,4 32 18 - - SW 1005,0 20
08.12.2018 06:00:00 7,4 4,4 32 18 50 27 SW 1005,1 20
08.12.2018 05:00:00 6,8 4,1 32 18 43 23 SW 1005,5 20
08.12.2018 04:00:00 6,0 3,8 25 14 - - SW 1006,0 20
08.12.2018 03:00:00 5,9 3,5 21 11 32 18 SW 1006,7 10
08.12.2018 02:00:00 6,0 3,5 22 12 36 19 SW 1007,1 20
08.12.2018 01:00:00 5,9 3,1 22 12 - - SW 1007,1 20
08.12.2018 00:00:00 5,8 3,2 22 12 40 21 SW 1006,7 20
07.12.2018 23:00:00 6,0 4,3 25 14 36 19 WSW 1006,2 20
07.12.2018 22:00:00 5,6 4,0 25 14 - - WSW 1005,6 11
07.12.2018 21:00:00 6,8 4,3 25 14 47 25 WSW 1004,5 20
07.12.2018 20:00:00 7,0 5,7 14 8 29 16 WSW 1003,2 20
07.12.2018 19:00:00 7,0 5,4 14 8 - - W 1002,1 20
07.12.2018 18:00:00 8,9 8,2 28 15 50 27 WSW 1000,0 4,6
07.12.2018 17:00:00 10,1 9,3 25 14 43 23 SSW 998,7 4,2
07.12.2018 16:00:00 10,1 9,1 25 14 - - SSW 999,7 4,0
07.12.2018 15:00:00 10,7 8,8 28 15 50 27 SSW 1000,7 4,0
07.12.2018 14:00:00 11,3 9,7 29 16 50 27 SSW 1002,3 15
07.12.2018 13:00:00 12,0 9,3 25 14 - - SSW 1004,1 20
07.12.2018 12:00:00 11,6 9,7 29 16 47 25 SSW 1005,7 15
07.12.2018 11:00:00 11,1 9,7 28 15 43 23 SSW 1007,7 10
07.12.2018 10:00:00 10,8 9,8 22 12 - - SSW 1008,6 12
07.12.2018 09:00:00 10,6 9,9 22 12 36 19 SSW 1009,7 5
07.12.2018 08:00:00 10,7 10,1 29 16 36 19 SSW 1010,2 2,0
07.12.2018 07:00:00 10,8 10,1 25 14 - - SW 1011,0 4,0
07.12.2018 06:00:00 10,8 10,3 25 14 40 21 SW 1011,7 3,5
07.12.2018 05:00:00 10,8 10,4 25 14 36 19 SW 1012,5 7
07.12.2018 04:00:00 10,8 10,3 22 12 - - SW 1013,3 2,6
07.12.2018 03:00:00 11,0 10,2 22 12 40 21 SW 1014,1 7
07.12.2018 02:00:00 11,1 10,4 24 13 36 19 SW 1014,7 3,6
07.12.2018 01:00:00 11,3 10,0 22 12 - - SW 1015,3 7
07.12.2018 00:00:00 11,6 9,6 25 14 40 21 SW 1015,8 20
06.12.2018 23:00:00 11,8 10,1 24 13 43 23 SW 1016,2 10
06.12.2018 22:00:00 12,3 10,1 29 16 - - WSW 1016,5 10
06.12.2018 21:00:00 12,6 10,2 29 16 43 23 SW 1016,6 20
06.12.2018 20:00:00 12,5 10,3 22 12 36 19 SW 1016,3 20
06.12.2018 19:00:00 12,5 10,2 25 14 - - SW 1016,6 20
06.12.2018 18:00:00 12,3 10,3 22 12 32 18 SW 1016,7 20
06.12.2018 17:00:00 12,1 10,5 18 10 32 18 SW 1016,8 9
06.12.2018 16:00:00 11,6 10,8 14 8 - - SW 1017,0 3,3
06.12.2018 15:00:00 12,3 10,2 22 12 29 16 SW 1016,8 7
06.12.2018 14:00:00 12,4 10,2 14 8 25 14 SW 1017,1 9
06.12.2018 13:00:00 12,0 10,2 14 8 - - SW 1017,2 9
06.12.2018 12:00:00 11,8 10,2 18 10 29 16 SW 1017,6 6
06.12.2018 11:00:00 11,4 10,4 14 8 22 12 SW 1017,2 5
06.12.2018 10:00:00 11,3 10,5 14 8 - - SW 1016,7 4,0
06.12.2018 09:00:00 11,3 10,7 18 10 25 14 WSW 1016,2 3,0
06.12.2018 08:00:00 11,1 10,6 18 10 25 14 WSW 1015,6 3,5
06.12.2018 07:00:00 10,5 10,1 14 8 - - SW 1014,7 4,0
06.12.2018 06:00:00 10,1 9,7 11 6 22 12 SW 1014,3 3,0
06.12.2018 05:00:00 9,8 9,3 13 7 22 12 SSW 1013,7 6
06.12.2018 04:00:00 9,8 9,0 14 8 - - SSW 1013,7 19
06.12.2018 03:00:00 9,3 8,9 11 6 22 12 SSW 1013,5 19
06.12.2018 02:00:00 9,3 8,2 13 7 22 12 SSW 1013,7 2,9
06.12.2018 01:00:00 9,3 7,9 11 6 - - SSW 1013,8 20
06.12.2018 00:00:00 9,5 6,7 11 6 18 10 SSW 1014,2 20
05.12.2018 23:00:00 9,0 6,4 7 4 22 12 S 1014,2 20
05.12.2018 22:00:00 9,3 6,3 11 6 - - S 1014,8 20
05.12.2018 21:00:00 8,7 5,8 4 2 14 8 N 1015,2 20
05.12.2018 20:00:00 8,7 5,7 7 4 11 6 SSE 1015,5 20
05.12.2018 19:00:00 8,8 5,7 7 4 - - SSE 1016,3 20
05.12.2018 18:00:00 8,8 5,6 8 4 18 10 SE 1017,1 10
05.12.2018 17:00:00 8,8 5,9 4 2 11 6 N 1018,1 20
05.12.2018 16:00:00 8,3 6,3 4 2 - - N 1018,7 8
05.12.2018 15:00:00 8,5 5,9 4 2 11 6 N 1020,1 12
05.12.2018 14:00:00 8,6 5,0 4 2 14 8 N 1020,7 20
05.12.2018 13:00:00 8,6 5,0 7 4 - - SSE 1021,6 20
05.12.2018 12:00:00 7,7 4,9 4 2 7 4 N 1022,2 20
05.12.2018 11:00:00 5,0 3,9 4 2 7 4 N 1023,7 20
05.12.2018 10:00:00 3,6 2,7 4 2 - - N 1024,0 20
05.12.2018 09:00:00 3,2 2,3 4 2 7 4 N 1024,7 20
05.12.2018 08:00:00 2,9 2,1 4 2 7 4 N 1025,0 20
05.12.2018 07:00:00 1,7 1,3 4 2 - - N 1025,2 11
05.12.2018 06:00:00 1,2 0,9 4 2 7 4 - 1025,4 8
05.12.2018 05:00:00 1,2 0,8 2 1 4 2 - 1025,5 2,9
05.12.2018 04:00:00 1,5 1,1 4 2 - - N 1025,7 11
05.12.2018 03:00:00 0,8 0,5 4 2 7 4 N 1026,2 13
05.12.2018 02:00:00 1,2 0,8 2 1 4 2 - 1026,2 9
05.12.2018 01:00:00 0,5 0,1 4 2 - - N 1026,5 2,1
05.12.2018 00:00:00 0,5 0,2 4 2 0 0 N 1026,9 0,5
04.12.2018 23:00:00 1,2 0,9 2 1 0 0 - 1026,9 4,1
04.12.2018 22:00:00 1,8 1,6 2 1 - - - 1026,7 0,3
04.12.2018 21:00:00 2,3 1,5 4 2 4 2 N 1026,5 4,5
04.12.2018 20:00:00 2,7 2,4 4 2 0 0 N 1026,0 15
04.12.2018 19:00:00 3,2 2,8 4 2 - - N 1025,9 20
04.12.2018 18:00:00 4,0 3,1 4 2 4 2 N 1025,4 20
04.12.2018 17:00:00 5,5 3,9 4 2 4 2 N 1025,0 20
04.12.2018 16:00:00 7,9 4,4 4 2 - - N 1024,2 20
04.12.2018 15:00:00 8,8 3,5 4 2 11 6 N 1023,7 20
04.12.2018 14:00:00 8,8 3,4 5 3 11 6 WSW 1023,2 10
04.12.2018 13:00:00 7,4 4,3 4 2 - - N 1022,6 20
04.12.2018 12:00:00 7,4 4,6 7 4 11 6 W 1022,1 15
04.12.2018 11:00:00 6,4 5,4 4 2 18 10 N 1021,6 15
04.12.2018 10:00:00 5,5 4,8 7 4 - - SW 1020,5 15
04.12.2018 09:00:00 5,0 4,5 4 2 7 4 N 1019,2 15
04.12.2018 08:00:00 6,2 4,8 4 2 14 8 N 1017,7 15
04.12.2018 07:00:00 6,6 5,8 7 4 - - W 1016,5 10
04.12.2018 06:00:00 6,5 5,8 7 4 14 8 WSW 1015,3 10
04.12.2018 05:00:00 7,4 6,1 11 6 22 12 W 1014,0 18
04.12.2018 04:00:00 7,5 6,6 9 5 - - W 1013,2 10
04.12.2018 03:00:00 7,7 6,9 7 4 18 10 W 1012,1 19
04.12.2018 02:00:00 7,8 6,7 7 4 18 10 W 1010,7 20
04.12.2018 01:00:00 8,3 7,4 13 7 - - NW 1009,7 10
04.12.2018 00:00:00 9,3 7,6 14 8 36 19 NW 1007,7 20
03.12.2018 23:00:00 10,6 9,0 22 12 36 19 W 1005,2 20
03.12.2018 22:00:00 11,0 9,7 14 8 - - WSW 1003,5 17
03.12.2018 21:00:00 11,0 9,8 21 11 36 19 WSW 1002,2 10
03.12.2018 20:00:00 11,5 10,1 22 12 40 21 WSW 1001,6 17

tt = Température de l'air
td = dewpoint
ff = Vitesse du vent
fx = gusts
dd = Direction du vent
ppp = reduced air pressure
vv = visibility

stations d'obs. à proximité